Bad Axe, MI

8:04 AM EDT on April 19, 2018 (GMT -0400)
Huron County Memorial

Weather History for KBAX - October, 2012

Change the Weather History Date:

Sunday, October 7, 2012

  Actual Average (KP58) Record (KP58)
Temperature  
Mean Temperature 38 °F -  
Max Temperature 49 °F 62 °F 84 °F (2007)
Min Temperature 28 °F 46 °F 35 °F (1999)
Degree Days  
Heating Degree Days 26    
Moisture  
Dew Point 31 °F    
Average Humidity 72    
Maximum Humidity 97    
Minimum Humidity 40    
Precipitation  
Precipitation 0.00 in - - ()
Sea Level Pressure  
Sea Level Pressure 30.09 in    
Wind  
Wind Speed 3 mph (West)    
Max Wind Speed 10 mph    
Max Gust Speed -    
Visibility 10 miles    
Events      
Averages and records for this station are not official NWS values.
T = Trace of Precipitation, MM = Missing Value Source: NWS Daily Summary

Daily Weather History Graph

Daily Weather History Graph

Search for Another Location

Airport or City:

Astronomy

Oct. 07, 2012 Rise Set
Actual Time 7:37 AM EDT 7:01 PM EDT
Civil Twilight 7:08 AM EDT 7:30 PM EDT
Nautical Twilight 6:35 AM EDT 8:03 PM EDT
Astronomical Twilight 6:01 AM EDT 8:36 PM EDT
Moon No Moon Rise 2:21 PM EDT (10/7)
Length of Visible Light 12h 21m
Length of Day
11h 24m
Waning Gibbous, 56% of the Moon is Illuminated
Oct 7
Waning Gibbous
Oct 8
Last Quarter
Oct 15
New
Oct 21
First Quarter
Oct 29
Full

Hourly Weather History & Observations

Time (EDT) Temp. Windchill Dew Point Humidity Pressure Visibility Wind Dir Wind Speed Gust Speed Precip Events Conditions
12:13 AM 35.4 °F 31.5 °F 32.4 °F 89% 30.09 in 10.0 mi West 4.6 mph - N/A   Clear
12:34 AM 34.2 °F 30.0 °F 32.0 °F 92% 30.09 in 10.0 mi West 4.6 mph - N/A   Clear
12:54 AM 33.1 °F 30.0 °F 31.5 °F 94% 30.09 in 10.0 mi West 3.5 mph - N/A   Scattered Clouds
1:13 AM 33.6 °F 30.6 °F 32.0 °F 94% 30.09 in 10.0 mi West 3.5 mph - N/A   Scattered Clouds
1:34 AM 33.3 °F 28.9 °F 32.0 °F 95% 30.09 in 10.0 mi West 4.6 mph - N/A   Clear
1:53 AM 32.9 °F - 31.8 °F 96% 30.10 in 10.0 mi Calm Calm - N/A   Clear
2:14 AM 32.2 °F - 31.1 °F 96% 30.10 in 10.0 mi Calm Calm - N/A   Scattered Clouds
2:34 AM 32.9 °F - 31.8 °F 96% 30.10 in 10.0 mi Calm Calm - N/A   Clear
2:53 AM 30.0 °F - 28.4 °F 94% 30.10 in 10.0 mi Calm Calm - N/A   Clear
3:14 AM 30.4 °F - 28.9 °F 94% 30.10 in 10.0 mi Calm Calm - N/A   Clear
3:34 AM 29.3 °F - 28.0 °F 95% 30.09 in 10.0 mi Calm Calm - N/A   Mostly Cloudy
3:53 AM 30.9 °F - 29.7 °F 95% 30.09 in 10.0 mi Calm Calm - N/A   Overcast
4:14 AM 31.5 °F - 30.2 °F 95% 30.09 in 10.0 mi Calm Calm - N/A   Overcast
4:34 AM 32.0 °F - 30.9 °F 96% 30.08 in 10.0 mi Calm Calm - N/A   Overcast
4:53 AM 32.2 °F - 31.5 °F 97% 30.09 in 10.0 mi Calm Calm - N/A   Mostly Cloudy
5:14 AM 30.7 °F - 29.1 °F 94% 30.08 in 10.0 mi Calm Calm - N/A   Clear
5:34 AM 32.2 °F - 31.3 °F 96% 30.08 in 10.0 mi Calm Calm - N/A   Clear
5:53 AM 29.8 °F - 28.0 °F 93% 30.08 in 10.0 mi Calm Calm - N/A   Clear
6:14 AM 30.7 °F - 29.3 °F 94% 30.08 in 10.0 mi Calm Calm - N/A   Scattered Clouds
6:34 AM 31.1 °F - 30.0 °F 96% 30.08 in 10.0 mi Calm Calm - N/A   Clear
6:53 AM 28.8 °F - 27.3 °F 94% 30.08 in 10.0 mi Calm Calm - N/A   Clear
7:14 AM 29.5 °F - 28.4 °F 96% 30.08 in 10.0 mi Calm Calm - N/A   Clear
7:34 AM 31.1 °F - 29.5 °F 94% 30.09 in 10.0 mi Calm Calm - N/A   Mostly Cloudy
7:54 AM 29.7 °F - 28.0 °F 94% 30.09 in 10.0 mi Calm Calm - N/A   Overcast
8:14 AM 31.8 °F - 30.0 °F 93% 30.10 in 10.0 mi Calm Calm - N/A   Overcast
8:34 AM 33.8 °F - 32.0 °F 93% 30.10 in 10.0 mi Calm Calm - N/A   Overcast
8:54 AM 36.5 °F 33.9 °F 33.8 °F 90% 30.10 in 10.0 mi NW 3.5 mph - N/A   Overcast
9:14 AM 39.7 °F 37.6 °F 35.8 °F 86% 30.11 in 10.0 mi NW 3.5 mph - N/A   Scattered Clouds
9:34 AM 41.9 °F 38.2 °F 35.2 °F 77% 30.11 in 10.0 mi NW 5.8 mph - N/A   Clear
9:54 AM 43.2 °F 38.4 °F 33.6 °F 69% 30.11 in 10.0 mi NW 8.1 mph - N/A   Clear
10:14 AM 44.2 °F 39.7 °F 31.6 °F 61% 30.10 in 10.0 mi NW 8.1 mph - N/A   Clear
10:33 AM 44.8 °F 39.9 °F 31.1 °F 59% 30.10 in 10.0 mi NW 9.2 mph - N/A   Clear
10:54 AM 45.9 °F 41.7 °F 30.2 °F 54% 30.10 in 10.0 mi NW 8.1 mph - N/A   Clear
11:14 AM 46.8 °F - 29.7 °F 51% 30.10 in 10.0 mi NNW 5.8 mph - N/A   Clear
11:33 AM 46.9 °F - 28.6 °F 49% 30.10 in 10.0 mi NW 6.9 mph - N/A   Clear
11:54 AM 47.7 °F - 28.0 °F 47% 30.10 in 10.0 mi WNW 10.4 mph - N/A   Clear
12:14 PM 48.0 °F - 28.4 °F 47% 30.10 in 10.0 mi NW 4.6 mph - N/A   Clear
12:33 PM 48.6 °F - 28.2 °F 45% 30.10 in 10.0 mi West 4.6 mph - N/A   Clear
12:54 PM 49.6 °F - 29.3 °F 46% 30.10 in 10.0 mi WNW 9.2 mph - N/A   Scattered Clouds
1:14 PM 48.6 °F - 28.0 °F 45% 30.10 in 10.0 mi WNW 5.8 mph - N/A   Clear
1:33 PM 48.7 °F - 28.2 °F 45% 30.09 in 10.0 mi NNW 8.1 mph - N/A   Mostly Cloudy
1:54 PM 49.1 °F - 27.3 °F 43% 30.08 in 10.0 mi West 9.2 mph - N/A   Mostly Cloudy
2:14 PM 48.7 °F - 28.8 °F 46% 30.08 in 10.0 mi West 8.1 mph - N/A   Overcast
2:34 PM 49.6 °F - 28.8 °F 45% 30.07 in 10.0 mi WNW 5.8 mph - N/A   Overcast
2:54 PM 49.1 °F - 26.8 °F 42% 30.07 in 10.0 mi NW 3.5 mph - N/A   Overcast
3:14 PM 49.3 °F - 26.6 °F 41% 30.07 in 10.0 mi WSW 6.9 mph - N/A   Overcast
3:34 PM 49.3 °F - 25.7 °F 40% 30.07 in 10.0 mi WNW 9.2 mph - N/A   Overcast
3:54 PM 49.8 °F - 27.9 °F 43% 30.07 in 10.0 mi West 8.1 mph - N/A   Overcast
4:14 PM 49.1 °F - 26.8 °F 42% 30.07 in 10.0 mi SW 6.9 mph - N/A   Overcast
4:34 PM 48.7 °F - 26.2 °F 42% 30.07 in 10.0 mi West 6.9 mph - N/A   Overcast
4:54 PM 48.6 °F - 26.8 °F 43% 30.07 in 10.0 mi West 6.9 mph - N/A   Overcast
5:14 PM 48.4 °F - 28.0 °F 45% 30.07 in 10.0 mi West 4.6 mph - N/A   Overcast
5:34 PM 48.2 °F - 29.5 °F 48% 30.07 in 10.0 mi WSW 5.8 mph - N/A   Overcast
5:54 PM 47.8 °F - 30.0 °F 50% 30.07 in 10.0 mi West 3.5 mph - N/A   Overcast
6:15 PM 47.3 °F - 30.7 °F 53% 30.07 in 10.0 mi Calm Calm - N/A   Overcast
6:34 PM 46.8 °F - 31.3 °F 55% 30.07 in 10.0 mi Calm Calm - N/A   Overcast
6:54 PM 46.4 °F - 32.0 °F 57% 30.07 in 10.0 mi Calm Calm - N/A   Overcast
7:14 PM 44.8 °F - 34.2 °F 66% 30.07 in 10.0 mi Calm Calm - N/A   Overcast
7:34 PM 44.8 °F - 33.8 °F 65% 30.07 in 10.0 mi Calm Calm - N/A   Overcast
7:54 PM 44.2 °F 42.7 °F 35.1 °F 70% 30.08 in 10.0 mi West 3.5 mph - N/A   Overcast
8:14 PM 44.1 °F - 35.1 °F 71% 30.08 in 10.0 mi Calm Calm - N/A   Overcast
8:34 PM 43.9 °F 42.3 °F 34.2 °F 69% 30.09 in 10.0 mi WSW 3.5 mph - N/A   Overcast
8:54 PM 43.3 °F - 34.0 °F 70% 30.09 in 10.0 mi Calm Calm - N/A   Overcast
9:14 PM 43.2 °F 40.5 °F 35.1 °F 73% 30.09 in 10.0 mi SW 4.6 mph - N/A   Overcast
9:34 PM 43.9 °F 41.3 °F 34.5 °F 70% 30.09 in 10.0 mi WSW 4.6 mph - N/A   Overcast
9:55 PM 42.8 °F 41.1 °F 34.0 °F 71% 30.09 in 10.0 mi WSW 3.5 mph - N/A   Overcast
10:14 PM 41.7 °F 39.8 °F 33.8 °F 73% 30.09 in 10.0 mi SW 3.5 mph - N/A   Mostly Cloudy
10:34 PM 40.8 °F - 33.8 °F 76% 30.09 in 10.0 mi Calm Calm - N/A   Scattered Clouds
10:55 PM 40.1 °F 38.0 °F 34.0 °F 79% 30.10 in 10.0 mi SW 3.5 mph - N/A   Mostly Cloudy
11:14 PM 39.7 °F 37.6 °F 33.8 °F 79% 30.10 in 10.0 mi SW 3.5 mph - N/A   Scattered Clouds
11:34 PM 40.1 °F 38.0 °F 35.1 °F 82% 30.10 in 10.0 mi SW 3.5 mph - N/A   Mostly Cloudy
11:54 PM 39.2 °F 35.9 °F 34.3 °F 83% 30.11 in 10.0 mi WSW 4.6 mph - N/A   Scattered Clouds